Flag for Cote d'Ivoire (Ivory Coast) Weather past 2 weeks in Abidjan, Cote d'Ivoire (Ivory Coast)

Now
84 °F

Passing clouds.


Feels Like: 94 °F
Forecast: N/A
Wind: 9 mph from Southwest

Location: Abidjan Airport

Current Time: Feb 1, 2015 at 7:02:16 PM

Latest Report: Feb 1, 2015 at 6:30 PM


Visibility: 4 mi

Pressure: 29.80 "Hg

Humidity: 79%

Dew point: 77 °F

Location of AbidjanLocation

Historic Weather in Abidjan — Graph

°F

Abidjan temperature yesterday

Maximum temperature yesterday: 90 °F (at 1:30 PM)
Minimum temperature yesterday: 82 °F (at 12:00 AM)
Average temperature yesterday: 84 °F

Past Weeks' High & Low Weather Summary

 TemperatureHumidityPressure
High90 °F (Jan 26, 2:00 PM)100% (Jan 18, 12:30 AM)29.98 "Hg (Jan 18, 12:30 AM)
Low75 °F (Jan 26, 5:03 PM)62% (Jan 24, 1:30 PM)29.77 "Hg (Jan 20, 2:30 PM)
Average83 °F83%29.86 "Hg
* Reported Jan 17 6:00 PM — Feb 1 6:00 PM, Abidjan, Weather by CustomWeather, © 2014

Note: Actual official high and low records may vary slightly from our data, if they occured in-between our weather recording intervals... More about our weather records

Advertising

Abidjan weather history for previous 24 hours

 ConditionsComfort  
Time TempWeatherWind HumidityBarometerVisibility
6:00 PM
Feb 1
84 °FPassing clouds.9 mph79%29.80 "Hg4 mi
5:30 PM86 °FPassing clouds.12 mph75%29.80 "Hg4 mi
5:00 PM86 °FPassing clouds.13 mph75%29.80 "Hg4 mi
4:30 PM86 °FScattered clouds.15 mph75%29.77 "Hg4 mi
4:00 PM86 °FScattered clouds.15 mph75%29.77 "Hg4 mi
3:30 PM88 °FScattered clouds.12 mph70%29.80 "Hg4 mi
3:00 PM88 °FThunderstorms. Scattered clouds.12 mph70%29.80 "Hg4 mi
2:30 PM86 °FThunderstorms. Scattered clouds.10 mph79%29.80 "Hg4 mi
2:00 PM90 °FThunderstorms. Scattered clouds.10 mph71%29.83 "Hg4 mi
1:30 PM88 °FThunderstorms. Scattered clouds.12 mph75%29.83 "Hg4 mi
1:00 PM88 °FScattered clouds.13 mph75%29.83 "Hg4 mi
12:30 PM88 °FScattered clouds.12 mph75%29.86 "Hg5 mi
12:00 PM88 °FScattered clouds.12 mph75%29.86 "Hg5 mi
11:30 AM88 °FScattered clouds.10 mph75%29.89 "Hg5 mi
11:00 AM86 °FScattered clouds.10 mph75%29.89 "Hg5 mi
10:30 AM86 °FScattered clouds.8 mph75%29.89 "Hg5 mi
10:00 AM86 °FScattered clouds.8 mph75%29.92 "Hg5 mi
9:30 AM86 °FScattered clouds.9 mph75%29.92 "Hg5 mi
9:00 AM84 °FScattered clouds.8 mph84%29.89 "Hg5 mi
8:30 AM84 °FScattered clouds.7 mph84%29.89 "Hg5 mi
8:00 AM82 °FScattered clouds.5 mph84%29.89 "Hg5 mi
7:30 AM82 °FScattered clouds.5 mph84%29.86 "Hg5 mi
7:00 AM81 °FScattered clouds.5 mph89%29.86 "Hg5 mi
6:30 AM81 °FPassing clouds.5 mph89%29.86 "HgN/A
6:00 AM82 °FPassing clouds.6 mph84%29.86 "HgN/A
5:30 AM82 °FPassing clouds.7 mph84%29.83 "HgN/A
5:00 AM82 °FPassing clouds.7 mph84%29.83 "HgN/A
4:30 AM82 °FPassing clouds.7 mph84%29.83 "HgN/A
4:00 AM82 °FPassing clouds.7 mph84%29.83 "HgN/A
3:30 AM82 °FPassing clouds.8 mph89%29.83 "HgN/A
3:00 AM81 °FPassing clouds.7 mph94%29.83 "HgN/A
2:30 AM82 °FPassing clouds.7 mph89%29.83 "HgN/A
2:00 AM82 °FPassing clouds.8 mph89%29.86 "HgN/A
1:30 AM82 °FPassing clouds.9 mph89%29.86 "HgN/A
1:00 AM82 °FPassing clouds.7 mph89%29.89 "HgN/A
12:30 AM82 °FPassing clouds.8 mph89%29.89 "HgN/A
12:00 AM82 °FPassing clouds.10 mph89%29.89 "HgN/A
11:30 PM
Jan 31
82 °FPassing clouds.12 mph89%29.92 "HgN/A
11:00 PM82 °FPassing clouds.10 mph89%29.89 "HgN/A
10:30 PM82 °FThunderstorms. Passing clouds.7 mph89%29.92 "HgN/A
10:00 PM82 °FThunderstorms. Passing clouds.9 mph84%29.92 "HgN/A
9:30 PM82 °FThunderstorms. Passing clouds.9 mph84%29.92 "HgN/A
9:00 PM82 °FThunderstorms. Passing clouds.8 mph84%29.92 "HgN/A
8:30 PM82 °FThunderstorms. Passing clouds.12 mph84%29.89 "HgN/A
8:00 PM82 °FThunderstorms. Passing clouds.7 mph84%29.89 "HgN/A
7:30 PM82 °FThunderstorms. Passing clouds.8 mph84%29.86 "HgN/A
7:00 PM84 °FPassing clouds.9 mph84%29.86 "HgN/A
Weather by CustomWeather, © 2014

See weather overviewHow to use our weather pages